FIN4BX EFHK-EFKT

Flight info

Callsign FIN4BX
Flight time 1h 18m
Altitude 38000
Route TEVRU Y75 EVIMI
Aircraft A321/M-SDE1E2E3FGIJ1M1RWXYZ/LB1

Departure

Time 2026-04-18 08:37
Airport Helsinki Vantaa Airport (EFHK)

Arrival

Time 2026-04-18 09:55
Airport Kittilä International Airport (EFKT)
Time Latitude Longitude Altitude Speed Heading
2026-04-18 07:43 60.31910 24.96616 167 ft 0 kts 137°
2026-04-18 08:29 60.31912 24.96610 167 ft 3 kts 137°
2026-04-18 08:29 60.31932 24.96575 167 ft 4 kts 145°
2026-04-18 08:29 60.31954 24.96554 167 ft 4 kts 191°
2026-04-18 08:29 60.31963 24.96561 167 ft 0 kts 227°
2026-04-18 08:32 60.31945 24.96522 167 ft 6 kts 227°
2026-04-18 08:32 60.31924 24.96475 167 ft 4 kts 227°
2026-04-18 08:32 60.31900 24.96422 167 ft 7 kts 227°
2026-04-18 08:32 60.31870 24.96355 167 ft 6 kts 233°
2026-04-18 08:33 60.31856 24.96214 167 ft 14 kts 279°
2026-04-18 08:33 60.31909 24.96061 167 ft 13 kts 313°
2026-04-18 08:33 60.31910 24.95917 170 ft 10 kts 231°
2026-04-18 08:33 60.31863 24.95815 169 ft 10 kts 227°
2026-04-18 08:34 60.31818 24.95716 170 ft 9 kts 227°
2026-04-18 08:34 60.31779 24.95632 170 ft 9 kts 227°
2026-04-18 08:34 60.31730 24.95522 171 ft 11 kts 228°
2026-04-18 08:34 60.31680 24.95412 171 ft 11 kts 227°
2026-04-18 08:35 60.31624 24.95289 170 ft 15 kts 227°
2026-04-18 08:35 60.31554 24.95135 170 ft 15 kts 227°
2026-04-18 08:35 60.31484 24.94981 168 ft 15 kts 227°
2026-04-18 08:35 60.31417 24.94828 166 ft 13 kts 234°
2026-04-18 08:36 60.31432 24.94660 164 ft 13 kts 313°
2026-04-18 08:36 60.31494 24.94534 163 ft 8 kts 315°
2026-04-18 08:36 60.31532 24.94527 163 ft 5 kts 37°
2026-04-18 08:36 60.31561 24.94588 164 ft 18 kts 47°
2026-04-18 08:37 60.31814 24.95142 174 ft 91 kts 47°
2026-04-18 08:37 60.32621 24.96919 313 ft 152 kts 47°
2026-04-18 08:37 60.33327 24.98474 1073 ft 150 kts 49°
2026-04-18 08:37 60.34052 25.00076 1692 ft 164 kts 49°
2026-04-18 08:38 60.34872 25.01892 2138 ft 185 kts 49°
2026-04-18 08:38 60.35478 25.03239 2448 ft 198 kts 49°
2026-04-18 08:38 60.36470 25.05459 2867 ft 226 kts 48°
2026-04-18 08:38 60.37571 25.07912 3602 ft 241 kts 48°
2026-04-18 08:39 60.38715 25.10436 4608 ft 245 kts 47°
2026-04-18 08:39 60.40084 25.12382 5610 ft 249 kts 20°
2026-04-18 08:39 60.41837 25.12856 6591 ft 255 kts
2026-04-18 08:39 60.43599 25.12961 7504 ft 258 kts
2026-04-18 08:40 60.45404 25.13030 8481 ft 260 kts
2026-04-18 08:40 60.47221 25.13080 9468 ft 262 kts
2026-04-18 08:40 60.49049 25.13128 10426 ft 263 kts 360°
2026-04-18 08:40 60.50872 25.12659 11286 ft 266 kts 346°
2026-04-18 08:41 60.52606 25.11246 12025 ft 275 kts 336°
2026-04-18 08:41 60.54406 25.09500 12297 ft 298 kts 336°
2026-04-18 08:41 60.56331 25.07637 12781 ft 312 kts 336°
2026-04-18 08:41 60.58305 25.05726 13545 ft 316 kts 336°
2026-04-18 08:42 60.60302 25.03788 14319 ft 320 kts 336°
2026-04-18 08:42 60.62317 25.01829 15055 ft 322 kts 336°
2026-04-18 08:42 60.64346 24.99850 15789 ft 325 kts 336°
2026-04-18 08:42 60.66399 24.97850 16524 ft 327 kts 336°
2026-04-18 08:43 60.68460 24.95842 17252 ft 330 kts 336°
2026-04-18 08:43 60.70536 24.93815 17962 ft 332 kts 336°
2026-04-18 08:43 60.72626 24.91772 18660 ft 334 kts 336°
2026-04-18 08:43 60.74706 24.89737 19261 ft 337 kts 336°
2026-04-18 08:44 60.76823 24.87665 19864 ft 339 kts 336°
2026-04-18 08:44 60.78954 24.85571 20460 ft 341 kts 336°
2026-04-18 08:44 60.81173 24.83854 21020 ft 342 kts 346°
2026-04-18 08:44 60.83528 24.83110 21590 ft 344 kts 356°
2026-04-18 08:45 60.85927 24.83356 22149 ft 347 kts
2026-04-18 08:45 60.88329 24.83940 22676 ft 349 kts
2026-04-18 08:45 60.90751 24.84523 23184 ft 351 kts
2026-04-18 08:45 60.93187 24.85100 23690 ft 354 kts
2026-04-18 08:46 60.95641 24.85673 24140 ft 356 kts
2026-04-18 08:46 60.98115 24.86251 24509 ft 359 kts
2026-04-18 08:46 61.00612 24.86839 24878 ft 363 kts
2026-04-18 08:46 61.03133 24.87437 25284 ft 366 kts
2026-04-18 08:47 61.05669 24.88040 25710 ft 368 kts
2026-04-18 08:47 61.08223 24.88651 26148 ft 371 kts
2026-04-18 08:47 61.10796 24.89272 26582 ft 373 kts
2026-04-18 08:47 61.13384 24.89894 27010 ft 375 kts
2026-04-18 08:48 61.15988 24.90521 27466 ft 377 kts
2026-04-18 08:48 61.18570 24.91143 27906 ft 379 kts
2026-04-18 08:48 61.21198 24.91783 28322 ft 381 kts
2026-04-18 08:48 61.23850 24.92425 28724 ft 384 kts
2026-04-18 08:49 61.26509 24.93066 29140 ft 386 kts
2026-04-18 08:49 61.29187 24.93711 29512 ft 388 kts
2026-04-18 08:49 61.31883 24.94362 29897 ft 391 kts
2026-04-18 08:49 61.34595 24.95016 30277 ft 393 kts
2026-04-18 08:50 61.37284 24.95664 30586 ft 395 kts
2026-04-18 08:50 61.40030 24.96330 30884 ft 398 kts
2026-04-18 08:50 61.42788 24.96998 31165 ft 400 kts
2026-04-18 08:50 61.45561 24.97677 31469 ft 402 kts
2026-04-18 08:51 61.48338 24.98362 31842 ft 401 kts
2026-04-18 08:51 61.51110 24.99047 32240 ft 400 kts
2026-04-18 08:51 61.53873 24.99728 32615 ft 400 kts
2026-04-18 08:51 61.56638 25.00408 32985 ft 399 kts
2026-04-18 08:52 61.59397 25.01091 33363 ft 399 kts
2026-04-18 08:52 61.62158 25.01600 33719 ft 398 kts
2026-04-18 08:52 61.64922 25.01702 34080 ft 397 kts
2026-04-18 08:52 61.67690 25.01801 34414 ft 397 kts
2026-04-18 08:53 61.70451 25.01900 34684 ft 397 kts
2026-04-18 08:53 61.73217 25.01998 34927 ft 398 kts
2026-04-18 08:53 61.75994 25.02096 35174 ft 399 kts
2026-04-18 08:53 61.78775 25.02198 35425 ft 400 kts
2026-04-18 08:54 61.81535 25.02301 35612 ft 401 kts
2026-04-18 08:54 61.84332 25.02406 35830 ft 403 kts
2026-04-18 08:54 61.87138 25.02510 36055 ft 404 kts
2026-04-18 08:54 61.89955 25.02621 36286 ft 405 kts
2026-04-18 08:55 61.92776 25.02736 36518 ft 406 kts
2026-04-18 08:55 61.95611 25.02852 36730 ft 407 kts
2026-04-18 08:55 61.98449 25.02965 36949 ft 408 kts
2026-04-18 08:55 62.01290 25.03077 37160 ft 409 kts
2026-04-18 08:56 62.04141 25.03187 37354 ft 410 kts
2026-04-18 08:56 62.06996 25.03295 37555 ft 410 kts
2026-04-18 08:56 62.09855 25.03407 37766 ft 411 kts
2026-04-18 08:56 62.12684 25.03519 37949 ft 412 kts
2026-04-18 08:57 62.18429 25.03737 38293 ft 414 kts
2026-04-18 08:57 62.24194 25.03951 38331 ft 414 kts
2026-04-18 08:58 62.29957 25.04164 38331 ft 414 kts
2026-04-18 08:58 62.35679 25.04385 38337 ft 414 kts
2026-04-18 08:59 62.41442 25.04608 38337 ft 414 kts
2026-04-18 08:59 62.47199 25.04832 38340 ft 414 kts
2026-04-18 09:00 62.52965 25.05063 38351 ft 414 kts
2026-04-18 09:00 62.58732 25.05287 38338 ft 415 kts
2026-04-18 09:01 62.64505 25.05520 38350 ft 415 kts
2026-04-18 09:01 62.70284 25.05747 38353 ft 415 kts
2026-04-18 09:02 62.76035 25.05969 38369 ft 416 kts
2026-04-18 09:02 62.81818 25.06186 38366 ft 416 kts
2026-04-18 09:03 62.87602 25.06417 38367 ft 416 kts
2026-04-18 09:03 62.93389 25.06643 38374 ft 416 kts
2026-04-18 09:04 62.99184 25.06860 38378 ft 416 kts
2026-04-18 09:04 63.04973 25.07087 38375 ft 416 kts
2026-04-18 09:05 63.10736 25.07328 38386 ft 416 kts
2026-04-18 09:05 63.16527 25.07570 38391 ft 416 kts
2026-04-18 09:06 63.22325 25.07817 38387 ft 416 kts
2026-04-18 09:06 63.28124 25.08050 38390 ft 416 kts
2026-04-18 09:07 63.33918 25.08293 38371 ft 416 kts
2026-04-18 09:07 63.39712 25.08539 38380 ft 416 kts
2026-04-18 09:08 63.45507 25.08773 38395 ft 416 kts
2026-04-18 09:08 63.51261 25.09003 38395 ft 416 kts
2026-04-18 09:09 63.57052 25.09253 38393 ft 416 kts
2026-04-18 09:09 63.62838 25.09493 38391 ft 416 kts
2026-04-18 09:10 63.68628 25.09724 38395 ft 416 kts
2026-04-18 09:10 63.74409 25.09950 38394 ft 416 kts
2026-04-18 09:11 63.80196 25.10186 38400 ft 416 kts
2026-04-18 09:11 63.85977 25.10436 38400 ft 416 kts
2026-04-18 09:12 63.91760 25.10688 38402 ft 416 kts
2026-04-18 09:12 63.97546 25.10933 38400 ft 416 kts
2026-04-18 09:13 64.03295 25.11163 38401 ft 416 kts
2026-04-18 09:13 64.09074 25.11408 38390 ft 416 kts
2026-04-18 09:14 64.14864 25.11659 38393 ft 416 kts
2026-04-18 09:14 64.20652 25.11919 38396 ft 416 kts
2026-04-18 09:15 64.26448 25.12169 38404 ft 416 kts
2026-04-18 09:15 64.32236 25.12415 38405 ft 416 kts
2026-04-18 09:16 64.38033 25.12665 38407 ft 416 kts
2026-04-18 09:16 64.43832 25.12913 38422 ft 416 kts
2026-04-18 09:17 64.49590 25.12986 38424 ft 416 kts
2026-04-18 09:17 64.55378 25.12932 38421 ft 416 kts
2026-04-18 09:18 64.61162 25.12883 38419 ft 415 kts
2026-04-18 09:18 64.66957 25.12874 38423 ft 416 kts
2026-04-18 09:19 64.72739 25.12896 38422 ft 415 kts
2026-04-18 09:19 64.78520 25.12908 38429 ft 415 kts
2026-04-18 09:20 64.84306 25.12911 38414 ft 416 kts
2026-04-18 09:20 64.90095 25.12903 38425 ft 416 kts
2026-04-18 09:21 64.95849 25.12896 38435 ft 416 kts
2026-04-18 09:21 65.01642 25.12900 38438 ft 416 kts
2026-04-18 09:22 65.07442 25.12907 38440 ft 417 kts
2026-04-18 09:22 65.13241 25.12920 38448 ft 417 kts
2026-04-18 09:23 65.19049 25.12911 38450 ft 417 kts
2026-04-18 09:23 65.24856 25.12879 38449 ft 417 kts
2026-04-18 09:24 65.30653 25.12858 38445 ft 417 kts
2026-04-18 09:24 65.36453 25.12837 38444 ft 416 kts
2026-04-18 09:25 65.42215 25.12791 38445 ft 416 kts
2026-04-18 09:25 65.48004 25.12743 38448 ft 416 kts
2026-04-18 09:26 65.53790 25.12715 38448 ft 415 kts
2026-04-18 09:26 65.59570 25.12701 38448 ft 415 kts
2026-04-18 09:27 65.65345 25.12680 38450 ft 415 kts
2026-04-18 09:27 65.71127 25.12649 38452 ft 415 kts
2026-04-18 09:28 65.76906 25.12612 38451 ft 415 kts
2026-04-18 09:28 65.82688 25.12556 38453 ft 415 kts
2026-04-18 09:29 65.88466 25.12514 38455 ft 415 kts
2026-04-18 09:29 65.94250 25.12499 38456 ft 416 kts
2026-04-18 09:30 65.99057 25.12483 38457 ft 416 kts
2026-04-18 09:30 66.04842 25.12454 38456 ft 416 kts
2026-04-18 09:31 66.11567 25.12388 38455 ft 416 kts
2026-04-18 09:31 66.16412 25.11792 38465 ft 417 kts 358°
2026-04-18 09:32 66.22194 25.10601 38460 ft 417 kts 357°
2026-04-18 09:32 66.27976 25.09422 38116 ft 416 kts 358°
2026-04-18 09:33 66.30821 25.08906 37844 ft 415 kts 358°
2026-04-18 09:33 66.33741 25.08407 37577 ft 415 kts 358°
2026-04-18 09:33 66.36587 25.07931 37313 ft 415 kts 358°
2026-04-18 09:33 66.39464 25.07438 36900 ft 414 kts 358°
2026-04-18 09:34 66.42340 25.06938 36113 ft 416 kts 359°
2026-04-18 09:34 66.45235 25.06424 35274 ft 419 kts 359°
2026-04-18 09:34 66.48157 25.05904 34407 ft 422 kts 359°
2026-04-18 09:34 66.51086 25.05379 33440 ft 423 kts
2026-04-18 09:35 66.54025 25.04854 32564 ft 422 kts
2026-04-18 09:35 66.56925 25.04326 32018 ft 414 kts
2026-04-18 09:35 66.59780 25.03799 31424 ft 409 kts
2026-04-18 09:35 66.62598 25.03280 30825 ft 404 kts
2026-04-18 09:36 66.65388 25.02776 30188 ft 399 kts
2026-04-18 09:36 66.68137 25.02278 29600 ft 392 kts
2026-04-18 09:36 66.70834 25.01789 29039 ft 385 kts
2026-04-18 09:36 66.73485 25.01310 28486 ft 379 kts
2026-04-18 09:37 66.76094 25.00838 27963 ft 372 kts
2026-04-18 09:37 66.78657 25.00363 27418 ft 366 kts
2026-04-18 09:37 66.81186 24.99897 26898 ft 364 kts
2026-04-18 09:37 66.83706 24.99437 26379 ft 362 kts
2026-04-18 09:38 66.86177 24.98991 25890 ft 360 kts
2026-04-18 09:38 66.88668 24.98542 25401 ft 358 kts
2026-04-18 09:38 66.91142 24.98088 24912 ft 355 kts
2026-04-18 09:38 66.93609 24.97632 24445 ft 355 kts
2026-04-18 09:39 66.96072 24.97175 23977 ft 354 kts
2026-04-18 09:39 66.98529 24.96716 23482 ft 353 kts
2026-04-18 09:39 67.00975 24.96254 23036 ft 351 kts
2026-04-18 09:39 67.03404 24.95803 22605 ft 349 kts
2026-04-18 09:40 67.05820 24.95361 22167 ft 347 kts
2026-04-18 09:40 67.08231 24.94916 21728 ft 346 kts
2026-04-18 09:40 67.10622 24.94468 21277 ft 344 kts
2026-04-18 09:40 67.13001 24.94019 20835 ft 342 kts 360°
2026-04-18 09:41 67.15371 24.93575 20367 ft 340 kts 360°
2026-04-18 09:41 67.17728 24.93137 19913 ft 339 kts 359°
2026-04-18 09:41 67.20042 24.92697 19453 ft 337 kts 359°
2026-04-18 09:41 67.22372 24.92251 18988 ft 335 kts 359°
2026-04-18 09:42 67.24691 24.91774 18496 ft 334 kts 356°
2026-04-18 09:42 67.26974 24.90564 18016 ft 335 kts 349°
2026-04-18 09:42 67.29225 24.89080 17559 ft 333 kts 348°
2026-04-18 09:42 67.31463 24.87600 17104 ft 331 kts 348°
2026-04-18 09:43 67.33688 24.86132 16654 ft 329 kts 348°
2026-04-18 09:43 67.35900 24.84680 16198 ft 327 kts 348°
2026-04-18 09:43 67.38101 24.83232 15766 ft 325 kts 348°
2026-04-18 09:43 67.40300 24.81780 15121 ft 328 kts 348°
2026-04-18 09:44 67.42517 24.80315 14473 ft 329 kts 348°
2026-04-18 09:44 67.44737 24.78841 13889 ft 328 kts 348°
2026-04-18 09:44 67.46943 24.77375 13294 ft 326 kts 348°
2026-04-18 09:44 67.49107 24.75931 12709 ft 324 kts 347°
2026-04-18 09:45 67.51284 24.74502 12097 ft 321 kts 348°
2026-04-18 09:45 67.53452 24.73134 11484 ft 320 kts 348°
2026-04-18 09:45 67.55612 24.71793 10934 ft 318 kts 348°
2026-04-18 09:45 67.57708 24.70501 10781 ft 302 kts 348°
2026-04-18 09:46 67.59701 24.69270 10605 ft 288 kts 348°
2026-04-18 09:46 67.61635 24.68068 10210 ft 284 kts 348°
2026-04-18 09:46 67.63547 24.66876 9727 ft 281 kts 348°
2026-04-18 09:46 67.65446 24.65681 9239 ft 279 kts 348°
2026-04-18 09:47 67.67331 24.64490 8765 ft 278 kts 348°
2026-04-18 09:47 67.69204 24.63306 8292 ft 276 kts 347°
2026-04-18 09:47 67.71067 24.62121 7822 ft 275 kts 347°
2026-04-18 09:47 67.72916 24.60941 7389 ft 273 kts 347°
2026-04-18 09:48 67.74736 24.59787 6975 ft 271 kts 347°
2026-04-18 09:48 67.76592 24.58616 6530 ft 270 kts 347°
2026-04-18 09:48 67.78392 24.57467 6090 ft 269 kts 347°
2026-04-18 09:48 67.80210 24.56299 5692 ft 267 kts 347°
2026-04-18 09:49 67.81974 24.55172 5557 ft 254 kts 347°
2026-04-18 09:49 67.83657 24.54097 5428 ft 244 kts 346°
2026-04-18 09:49 67.85289 24.53550 5298 ft 232 kts
2026-04-18 09:49 67.86785 24.54748 5164 ft 221 kts 31°
2026-04-18 09:50 67.87922 24.57338 4941 ft 214 kts 56°
2026-04-18 09:50 67.88567 24.60829 4658 ft 210 kts 78°
2026-04-18 09:50 67.88880 24.64621 4370 ft 210 kts 79°
2026-04-18 09:50 67.89029 24.68356 4184 ft 198 kts 99°
2026-04-18 09:51 67.88550 24.71616 4015 ft 186 kts 128°
2026-04-18 09:51 67.87577 24.73792 3863 ft 184 kts 155°
2026-04-18 09:51 67.86353 24.74681 3817 ft 183 kts 169°
2026-04-18 09:51 67.85100 24.75337 3642 ft 185 kts 169°
2026-04-18 09:52 67.83836 24.76019 3340 ft 185 kts 168°
2026-04-18 09:52 67.82577 24.76699 3059 ft 184 kts 168°
2026-04-18 09:52 67.81322 24.77372 2777 ft 184 kts 168°
2026-04-18 09:52 67.80097 24.78069 2531 ft 179 kts 167°
2026-04-18 09:53 67.78924 24.78830 2287 ft 166 kts 166°
2026-04-18 09:53 67.77862 24.79534 2055 ft 150 kts 166°
2026-04-18 09:53 67.76889 24.80180 1852 ft 138 kts 166°
2026-04-18 09:53 67.75983 24.80778 1648 ft 131 kts 166°
2026-04-18 09:54 67.75106 24.81370 1462 ft 129 kts 165°
2026-04-18 09:54 67.74241 24.81992 1270 ft 128 kts 166°
2026-04-18 09:54 67.73382 24.82563 1106 ft 126 kts 165°
2026-04-18 09:54 67.72540 24.83113 945 ft 125 kts 165°
2026-04-18 09:55 67.71710 24.83650 772 ft 124 kts 165°
2026-04-18 09:55 67.70879 24.84190 643 ft 120 kts 165°
2026-04-18 09:55 67.70208 24.84621 640 ft 71 kts 166°
2026-04-18 09:55 67.69885 24.84830 642 ft 34 kts 166°
2026-04-18 09:56 67.69654 24.84980 642 ft 31 kts 166°
2026-04-18 09:56 67.69555 24.85045 642 ft 11 kts 166°
2026-04-18 09:56 67.69510 24.85128 639 ft 6 kts 115°
2026-04-18 09:56 67.69515 24.85239 645 ft 6 kts 76°
2026-04-18 09:57 67.69527 24.85354 642 ft 7 kts 75°
2026-04-18 09:57 67.69537 24.85451 642 ft 4 kts 70°
2026-04-18 09:57 67.69547 24.85520 643 ft 4 kts 71°
2026-04-18 09:57 67.69555 24.85588 641 ft 4 kts 72°
2026-04-18 09:58 67.69552 24.85646 640 ft 3 kts 114°
2026-04-18 09:58 67.69543 24.85682 644 ft 1 kts 122°
2026-04-18 09:58 67.69541 24.85689 643 ft 0 kts 123°